Tracking 20942 objects as of 4-Jul-2020
HD Live streaming from Space Station
objects crossing your sky now

THOR 3

Track THOR 3 now!
THOR 3 is classified as:


NORAD ID: 25358
Int'l Code: 1998-035A
Perigee: 36,190.0 km
Apogee: 36,214.5 km
Inclination: 7.8 °
Period: 1,457.0 minutes
Semi major axis: 42573 km
RCS: 23.5207 m2 (large)
Launch date: June 10, 1998
Source: Norway (NOR)
Launch site: AIR FORCE EASTERN TEST RANGE (AFETR)

14 Ku-band; Nordic region, central and eastern Europe.
aabbcc
Your satellite tracking list
Your tracking list is empty




NASA's NSSDC Master Catalog

Two Line Element Set (TLE):
1 25358U 98035A   20185.45437476 -.00000237 +00000-0 +00000-0 0  9997
2 25358 007.7630 053.6612 0002880 048.0244 155.2295 00.98831949080997
Source of the keplerian elements: AFSPC